Location: Lombard
(41.8800°N, 88.0080°W)
Time: 13:23:18
(UTC-05:00)

A-11 Canister half - Pass Details

Date: 06 February 2023
Orbit: 1512 x 1687 km, 47.2° (Epoch: 20 March)

Event Time Altitude Azimuth Distance (km) Brightness Sun altitude
Rises 11:08:24 0° 252° (WSW) 4,859 11.7 31.1°
Reaches altitude 10° 11:11:35 10° 253° (WSW) 3,851 11.2 31.2°
Maximum altitude 11:21:24 78° 340° (NNW) 1,614 9.5 31.7°
Drops below altitude 10° 11:30:53 10° 68° (ENE) 3,721 11.0 32.0°
Sets 11:33:54 0° 70° (ENE) 4,688 11.4 32.1°
